Flag for Canada Weather past 2 weeks in Camrose, Alberta, Canada

Now
55 °F

Overcast.


Feels Like: 53 °F
Forecast: 50 / 66 °F
Wind: 9 mph from Northwest

Location: Edmonton International

Current Time: Aug 20, 2014 at 3:36:08 AM

Latest Report: Aug 20, 2014 at 3:00 AM


Visibility: 15 mi

Pressure: 29.78 "Hg

Humidity: 88%

Dew point: 52 °F

Location of CamroseLocation

Historic Weather in Camrose — Graph

°F

Camrose temperature yesterday

Maximum temperature yesterday: 68 °F (at 12:00 PM)
Minimum temperature yesterday: 54 °F (at 11:00 PM)
Average temperature yesterday: 62 °F

Past Weeks' High & Low Weather Summary

 TemperatureHumidityPressure
High84 °F (Aug 12, 3:00 PM)100% (Aug 5, 2:00 AM)30.21 "Hg (Aug 5, 2:00 AM)
Low43 °F (Aug 8, 5:50 AM)32% (Aug 11, 5:00 PM)29.69 "Hg (Aug 19, 12:00 AM)
Average64 °F76%29.96 "Hg
* Reported Aug 5 2:00 AM — Aug 20 2:00 AM, Camrose, Weather by CustomWeather, © 2014

Note: Actual official high and low records may vary slightly from our data, if they occured in-between our weather recording intervals... More about our weather records

Advertising

Camrose weather history for previous 24 hours

 ConditionsComfort  
Time TempWeatherWind HumidityBarometerVisibility
2:00 AM
Aug 20
54 °FPartly cloudy.6 mph94%29.76 "Hg15 mi
1:00 AM50 °FPartly cloudy.3 mph94%29.76 "Hg15 mi
12:00 AM52 °FPartly cloudy.3 mph94%29.74 "Hg15 mi
11:00 PM
Aug 19
54 °FPartly cloudy.6 mph88%29.74 "Hg15 mi
10:00 PM55 °FPartly cloudy.7 mph88%29.73 "Hg15 mi
9:00 PM59 °FPartly sunny.5 mph82%29.72 "Hg15 mi
8:00 PM63 °FBroken clouds.5 mph73%29.72 "Hg15 mi
7:00 PM66 °FPartly sunny.2 mph60%29.70 "Hg15 mi
6:00 PM66 °FBroken clouds.5 mph52%29.70 "Hg15 mi
5:00 PM64 °FScattered showers. Broken clouds.5 mph56%29.72 "Hg15 mi
4:00 PM64 °FPartly sunny.7 mph56%29.72 "Hg15 mi
3:00 PM66 °FScattered showers. Partly sunny.9 mph60%29.73 "Hg15 mi
2:00 PM66 °FSprinkles. Partly sunny.8 mph68%29.72 "Hg15 mi
1:54 PM66 °FSprinkles. Broken clouds.9 mph68%29.72 "Hg12 mi
1:00 PM66 °FScattered showers. Partly sunny.12 mph68%29.71 "Hg15 mi
12:00 PM68 °FBroken clouds.7 mph69%29.71 "Hg12 mi
11:00 AM64 °FPartly sunny.8 mph83%29.72 "Hg12 mi
10:00 AM63 °FPartly sunny.6 mph88%29.71 "Hg12 mi
9:00 AM61 °FPartly sunny.3 mph94%29.71 "Hg12 mi
8:47 AM61 °FPartly sunny.3 mph94%29.71 "Hg12 mi
8:00 AM59 °FSprinkles. Partly sunny.6 mph100%29.72 "Hg10 mi
7:00 AM59 °FPassing clouds.7 mph94%29.72 "Hg12 mi
6:00 AM59 °FMostly cloudy.2 mph94%29.72 "Hg15 mi
5:00 AM57 °FOvercast.5 mph100%29.71 "Hg15 mi
4:55 AM57 °FOvercast.5 mph100%29.72 "Hg15 mi
4:00 AM59 °FMostly cloudy.6 mph94%29.72 "Hg15 mi
3:00 AM59 °FMostly cloudy.3 mph94%29.71 "Hg15 mi
Weather by CustomWeather, © 2014

See weather overviewHow to use our weather pages